Regional Weather Roundup
Issued by NWS Green Bay, WI

Home | Current Version | Previous Version | Graphics & Text | Print | Product List | Glossary Off
Versions: 1 2 3 4 5 6 7 8 9 10 11 12 13 14 15 16 17 18 19 20 21 22 23 24 25 26 27 28 29 30 31 32 33 34 35 36 37 38 39 40 41 42 43 44 45 46 47 48 49 50

000
ASUS43 KGRB 012259
RWRGRB

NORTH-CENTRAL AND NORTHEAST WISCONSIN REGIONAL WEATHER ROUNDUP
NATIONAL WEATHER SERVICE GREEN BAY WI
600 PM CDT WED APR 01 2015

WIZ005-009-010>012-018-019-020000-
NORTH CENTRAL WISCONSIN

CITY           SKY/WX    TMP DP  RH WIND       PRES   REMARKS
IRONWOOD       CLOUDY    57  37  47 S14G20    29.52S
MANITOWISH WTR NOT AVBL
ARBOR VITAE    NOT AVBL
EAGLE RIVER    NOT AVBL
LAND O LAKES   NOT AVBL
RHINELANDER    CLOUDY    57  36  45 SE10      29.68F
PHILLIPS       NOT AVBL
ANTIGO         NOT AVBL
TOMAHAWK       NOT AVBL
MERRILL        NOT AVBL
$$

WIZ013-073-020000-
NORTHEAST WISCONSIN

CITY           SKY/WX    TMP DP  RH WIND       PRES   REMARKS
IRON MOUNTAIN  LGT RAIN  48  31  51 SE9G18    29.75F
MARINETTE      CLOUDY    46  34  61 S10       29.78F
$$

WIZ017-030-035>037-045-020000-
CENTRAL WISCONSIN

CITY           SKY/WX    TMP DP  RH WIND       PRES   REMARKS
MEDFORD        NOT AVBL
WAUSAU         CLOUDY    68  37  32 SE9       29.64F
MOSINEE        SUNNY     68  36  30 S23G29    29.67F
MARSHFIELD     PTSUNNY   75  34  22 SW21G35   29.64F
WISC RAPIDS    PTSUNNY   75  31  19 S21G29    29.68F
STEVENS POINT  NOT AVBL
WAUPACA        NOT AVBL
SHAWANO        NOT AVBL
CLINTONVILLE   NOT AVBL
$$

WIZ038-039-048-051-020000-
FOX VALLEY

CITY           SKY/WX    TMP DP  RH WIND       PRES   REMARKS
NWS GREEN BAY  PTSUNNY   56  41  57 S15       29.76F
APPLETON       MOSUNNY   61  37  41 SE17G23   29.75F
OSHKOSH        MOSUNNY   63  41  44 SE15      29.74F
FOND DU LAC    MOSUNNY   64  40  41 SE18      29.76F
$$

WIZ022-050-052-020000-
EAST CENTRAL WISCONSIN

CITY           SKY/WX    TMP DP  RH WIND       PRES   REMARKS
STURGEON BAY   CLOUDY    46  36  66 S17G25    29.80F
MANITOWOC      NOT AVBL
SHEBOYGAN      MOSUNNY   52  37  56 S12       29.82F
$$

LMZ563-521-522-541>543-020000-
LAKESHORE

STATION/POSITION TIME  TEMP    WIND        PRES    VSBY  WAVE
                       AIR SEA DIR/SP/G                  HT/PER
                 (UTC) (F)     (DEG/KT/KT) (MB)    (MI)  (FT/S)
SHEBOYGAN LKSHOR 2200   38     190/ 11/ 12 1012.0F
KEWAUNEE LKSHORE 2200   40     180/ 20/ 23 1009.3F
NORTHPORT PIER   2200   36     140/ 10/ 14 1010.2F
CHAMBERS ISLAND  2200   47     150/  7/ 15 1009.1F
MENOMINEE LKSHOR 2200   34     160/ 11     1009.4F
$$



USA.gov is the U.S. government's official web portal to all federal, state and local government web resources and services.